2019,08,27,00,00,00,105.2,,,,,,,,,,,,,,
2019,08,27,00,01,00,109.5,,,,,,,,,,,,,,
2019,08,27,00,02,00,118.2,,,,,,,,,,,,,,
2019,08,27,00,03,00,123.2,,,,,,,,,,,,,,
2019,08,27,00,04,00,124.3,,,,,,,,,,,,,,
2019,08,27,00,05,00,127.4,,,,,,,,,,,,,,
2019,08,27,00,06,00,132.6,,,,,,,,,,,,,,
2019,08,27,00,07,00,127.4,,,,,,,,,,,,,,
2019,08,27,00,08,00,122.8,,,,,,,,,,,,,,
2019,08,27,00,09,00,113.0,,,,,,,,,,,,,,
2019,08,27,00,10,00,105.0,,,,,,,,,,,,,,
2019,08,27,00,11,00,89.1,,,,,,,,,,,,,,
2019,08,27,00,12,00,80.5,,,,,,,,,,,,,,
2019,08,27,00,13,00,81.1,,,,,,,,,,,,,,
2019,08,27,00,14,00,80.0,,,,,,,,,,,,,,
2019,08,27,00,15,00,83.0,,,,,,,,,,,,,,
2019,08,27,00,16,00,82.2,,,,,,,,,,,,,,
2019,08,27,00,17,00,80.2,,,,,,,,,,,,,,
2019,08,27,00,18,00,79.3,,,,,,,,,,,,,,
2019,08,27,00,19,00,79.1,,,,,,,,,,,,,,
2019,08,27,00,20,00,80.0,,,,,,,,,,,,,,
2019,08,27,00,21,00,83.4,,,,,,,,,,,,,,
2019,08,27,00,22,00,105.0,,,,,,,,,,,,,,
2019,08,27,00,23,00,113.0,,,,,,,,,,,,,,
2019,08,27,00,24,00,116.2,,,,,,,,,,,,,,
2019,08,27,00,25,00,112.5,,,,,,,,,,,,,,
2019,08,27,00,26,00,107.9,,,,,,,,,,,,,,
2019,08,27,00,27,00,98.3,,,,,,,,,,,,,,
2019,08,27,00,28,00,82.2,,,,,,,,,,,,,,
2019,08,27,00,29,00,74.7,,,,,,,,,,,,,,
2019,08,27,00,30,00,64.8,,,,,,,,,,,,,,
2019,08,27,00,31,00,51.9,,,,,,,,,,,,,,
2019,08,27,00,32,00,42.8,,,,,,,,,,,,,,
2019,08,27,00,33,00,50.8,,,,,,,,,,,,,,
2019,08,27,00,34,00,54.7,,,,,,,,,,,,,,
2019,08,27,00,35,00,55.8,,,,,,,,,,,,,,
2019,08,27,00,36,00,46.2,,,,,,,,,,,,,,
2019,08,27,00,37,00,39.3,,,,,,,,,,,,,,
2019,08,27,00,38,00,37.4,,,,,,,,,,,,,,
2019,08,27,00,39,00,37.2,,,,,,,,,,,,,,
2019,08,27,00,40,00,37.2,,,,,,,,,,,,,,
2019,08,27,00,41,00,44.8,,,,,,,,,,,,,,
2019,08,27,00,42,00,57.0,,,,,,,,,,,,,,
2019,08,27,00,43,00,65.2,,,,,,,,,,,,,,
2019,08,27,00,44,00,69.2,,,,,,,,,,,,,,
2019,08,27,00,45,00,75.1,,,,,,,,,,,,,,
2019,08,27,00,46,00,73.1,,,,,,,,,,,,,,
2019,08,27,00,47,00,59.7,,,,,,,,,,,,,,
2019,08,27,00,48,00,52.9,,,,,,,,,,,,,,
2019,08,27,00,49,00,40.1,,,,,,,,,,,,,,
2019,08,27,00,50,00,50.8,,,,,,,,,,,,,,
2019,08,27,00,51,00,67.8,,,,,,,,,,,,,,
2019,08,27,00,52,00,76.2,,,,,,,,,,,,,,
2019,08,27,00,53,00,74.8,,,,,,,,,,,,,,
2019,08,27,00,54,00,71.6,,,,,,,,,,,,,,
2019,08,27,00,55,00,69.2,,,,,,,,,,,,,,
2019,08,27,00,56,00,71.1,,,,,,,,,,,,,,
2019,08,27,00,57,00,75.2,,,,,,,,,,,,,,
2019,08,27,00,58,00,75.4,,,,,,,,,,,,,,
2019,08,27,00,59,00,77.4,,,,,,,,,,,,,,
2019,08,27,01,00,00,80.8,,,,,,,,,,,,,,
2019,08,27,01,01,00,83.7,,,,,,,,,,,,,,
2019,08,27,01,02,00,79.7,,,,,,,,,,,,,,
2019,08,27,01,03,00,75.1,,,,,,,,,,,,,,
2019,08,27,01,04,00,70.5,,,,,,,,,,,,,,
2019,08,27,01,05,00,69.9,,,,,,,,,,,,,,
2019,08,27,01,06,00,71.4,,,,,,,,,,,,,,
2019,08,27,01,07,00,70.5,,,,,,,,,,,,,,
2019,08,27,01,08,00,74.9,,,,,,,,,,,,,,
2019,08,27,01,09,00,78.8,,,,,,,,,,,,,,
2019,08,27,01,10,00,75.1,,,,,,,,,,,,,,
2019,08,27,01,11,00,70.6,,,,,,,,,,,,,,
2019,08,27,01,12,00,67.9,,,,,,,,,,,,,,
2019,08,27,01,13,00,65.8,,,,,,,,,,,,,,
2019,08,27,01,14,00,62.7,,,,,,,,,,,,,,
2019,08,27,01,15,00,62.1,,,,,,,,,,,,,,
2019,08,27,01,16,00,63.8,,,,,,,,,,,,,,
2019,08,27,01,17,00,65.9,,,,,,,,,,,,,,
2019,08,27,01,18,00,65.7,,,,,,,,,,,,,,
2019,08,27,01,19,00,71.3,,,,,,,,,,,,,,
2019,08,27,01,20,00,90.2,,,,,,,,,,,,,,
2019,08,27,01,21,00,141.6,,,,,,,,,,,,,,
2019,08,27,01,22,00,128.0,,,,,,,,,,,,,,
2019,08,27,01,23,00,84.2,,,,,,,,,,,,,,
2019,08,27,01,24,00,79.0,,,,,,,,,,,,,,
2019,08,27,01,25,00,79.7,,,,,,,,,,,,,,
2019,08,27,01,26,00,80.1,,,,,,,,,,,,,,
2019,08,27,01,27,00,80.0,,,,,,,,,,,,,,
2019,08,27,01,28,00,80.5,,,,,,,,,,,,,,
2019,08,27,01,29,00,80.2,,,,,,,,,,,,,,
2019,08,27,01,30,00,79.9,,,,,,,,,,,,,,
2019,08,27,01,31,00,80.3,,,,,,,,,,,,,,
2019,08,27,01,32,00,83.5,,,,,,,,,,,,,,
2019,08,27,01,33,00,84.3,,,,,,,,,,,,,,
2019,08,27,01,34,00,80.7,,,,,,,,,,,,,,
2019,08,27,01,35,00,80.3,,,,,,,,,,,,,,
2019,08,27,01,36,00,81.0,,,,,,,,,,,,,,
2019,08,27,01,37,00,89.0,,,,,,,,,,,,,,
2019,08,27,01,38,00,93.4,,,,,,,,,,,,,,
2019,08,27,01,39,00,100.0,,,,,,,,,,,,,,
2019,08,27,01,40,00,101.9,,,,,,,,,,,,,,
2019,08,27,01,41,00,106.3,,,,,,,,,,,,,,
2019,08,27,01,42,00,105.0,,,,,,,,,,,,,,
2019,08,27,01,43,00,100.7,,,,,,,,,,,,,,
2019,08,27,01,44,00,101.9,,,,,,,,,,,,,,
2019,08,27,01,45,00,103.6,,,,,,,,,,,,,,
2019,08,27,01,46,00,103.9,,,,,,,,,,,,,,
2019,08,27,01,47,00,106.5,,,,,,,,,,,,,,
2019,08,27,01,48,00,108.4,,,,,,,,,,,,,,
2019,08,27,01,49,00,107.7,,,,,,,,,,,,,,
2019,08,27,01,50,00,108.7,,,,,,,,,,,,,,
2019,08,27,01,51,00,109.5,,,,,,,,,,,,,,
2019,08,27,01,52,00,113.2,,,,,,,,,,,,,,
2019,08,27,01,53,00,109.8,,,,,,,,,,,,,,
2019,08,27,01,54,00,112.4,,,,,,,,,,,,,,
2019,08,27,01,55,00,108.4,,,,,,,,,,,,,,
2019,08,27,01,56,00,109.2,,,,,,,,,,,,,,
2019,08,27,01,57,00,110.8,,,,,,,,,,,,,,
2019,08,27,01,58,00,113.0,,,,,,,,,,,,,,
2019,08,27,01,59,00,109.7,,,,,,,,,,,,,,
2019,08,27,02,00,00,110.4,,,,,,,,,,,,,,
2019,08,27,02,01,00,110.2,,,,,,,,,,,,,,
2019,08,27,02,02,00,109.5,,,,,,,,,,,,,,
2019,08,27,02,03,00,111.3,,,,,,,,,,,,,,
2019,08,27,02,04,00,109.7,,,,,,,,,,,,,,
2019,08,27,02,05,00,108.6,,,,,,,,,,,,,,
2019,08,27,02,06,00,107.8,,,,,,,,,,,,,,
2019,08,27,02,07,00,106.3,,,,,,,,,,,,,,
2019,08,27,02,08,00,106.4,,,,,,,,,,,,,,
2019,08,27,02,09,00,107.5,,,,,,,,,,,,,,
2019,08,27,02,10,00,103.2,,,,,,,,,,,,,,
2019,08,27,02,11,00,103.8,,,,,,,,,,,,,,
2019,08,27,02,12,00,102.1,,,,,,,,,,,,,,
2019,08,27,02,13,00,99.3,,,,,,,,,,,,,,
2019,08,27,02,14,00,101.0,,,,,,,,,,,,,,
2019,08,27,02,15,00,106.9,,,,,,,,,,,,,,
2019,08,27,02,16,00,109.4,,,,,,,,,,,,,,
2019,08,27,02,17,00,110.3,,,,,,,,,,,,,,
2019,08,27,02,18,00,111.8,,,,,,,,,,,,,,
2019,08,27,02,19,00,111.8,,,,,,,,,,,,,,
2019,08,27,02,20,00,110.3,,,,,,,,,,,,,,
2019,08,27,02,21,00,110.7,,,,,,,,,,,,,,
2019,08,27,02,22,00,112.8,,,,,,,,,,,,,,
2019,08,27,02,23,00,111.3,,,,,,,,,,,,,,
2019,08,27,02,24,00,112.2,,,,,,,,,,,,,,
2019,08,27,02,25,00,114.2,,,,,,,,,,,,,,
2019,08,27,02,26,00,111.3,,,,,,,,,,,,,,
2019,08,27,02,27,00,106.2,,,,,,,,,,,,,,
2019,08,27,02,28,00,103.3,,,,,,,,,,,,,,
2019,08,27,02,29,00,102.7,,,,,,,,,,,,,,
2019,08,27,02,30,00,100.0,,,,,,,,,,,,,,
2019,08,27,02,31,00,100.4,,,,,,,,,,,,,,
2019,08,27,02,32,00,101.8,,,,,,,,,,,,,,
2019,08,27,02,33,00,103.4,,,,,,,,,,,,,,
2019,08,27,02,34,00,95.0,,,,,,,,,,,,,,
2019,08,27,02,35,00,100.4,,,,,,,,,,,,,,
2019,08,27,02,36,00,99.7,,,,,,,,,,,,,,
2019,08,27,02,37,00,106.4,,,,,,,,,,,,,,
2019,08,27,02,38,00,111.7,,,,,,,,,,,,,,
2019,08,27,02,39,00,113.4,,,,,,,,,,,,,,
2019,08,27,02,40,00,113.6,,,,,,,,,,,,,,
2019,08,27,02,41,00,106.3,,,,,,,,,,,,,,
2019,08,27,02,42,00,100.0,,,,,,,,,,,,,,
2019,08,27,02,43,00,102.7,,,,,,,,,,,,,,
2019,08,27,02,44,00,104.2,,,,,,,,,,,,,,
2019,08,27,02,45,00,104.8,,,,,,,,,,,,,,
2019,08,27,02,46,00,104.1,,,,,,,,,,,,,,
2019,08,27,02,47,00,105.8,,,,,,,,,,,,,,
2019,08,27,02,48,00,105.2,,,,,,,,,,,,,,
2019,08,27,02,49,00,103.5,,,,,,,,,,,,,,
2019,08,27,02,50,00,104.7,,,,,,,,,,,,,,
2019,08,27,02,51,00,109.7,,,,,,,,,,,,,,
2019,08,27,02,52,00,108.1,,,,,,,,,,,,,,
2019,08,27,02,53,00,106.6,,,,,,,,,,,,,,
2019,08,27,02,54,00,104.8,,,,,,,,,,,,,,
2019,08,27,02,55,00,107.7,,,,,,,,,,,,,,
2019,08,27,02,56,00,111.9,,,,,,,,,,,,,,
2019,08,27,02,57,00,111.5,,,,,,,,,,,,,,
2019,08,27,02,58,00,105.9,,,,,,,,,,,,,,
2019,08,27,02,59,00,102.8,,,,,,,,,,,,,,
2019,08,27,03,00,00,100.7,,,,,,,,,,,,,,
2019,08,27,03,01,00,102.2,,,,,,,,,,,,,,
2019,08,27,03,02,00,104.0,,,,,,,,,,,,,,
2019,08,27,03,03,00,107.5,,,,,,,,,,,,,,
2019,08,27,03,04,00,115.0,,,,,,,,,,,,,,
2019,08,27,03,05,00,113.2,,,,,,,,,,,,,,
2019,08,27,03,06,00,118.8,,,,,,,,,,,,,,
2019,08,27,03,07,00,111.7,,,,,,,,,,,,,,
2019,08,27,03,08,00,112.4,,,,,,,,,,,,,,
2019,08,27,03,09,00,113.4,,,,,,,,,,,,,,
2019,08,27,03,10,00,117.6,,,,,,,,,,,,,,
2019,08,27,03,11,00,110.5,,,,,,,,,,,,,,
2019,08,27,03,12,00,100.1,,,,,,,,,,,,,,
2019,08,27,03,13,00,94.5,,,,,,,,,,,,,,
2019,08,27,03,14,00,91.6,,,,,,,,,,,,,,
2019,08,27,03,15,00,89.5,,,,,,,,,,,,,,
2019,08,27,03,16,00,81.7,,,,,,,,,,,,,,
2019,08,27,03,17,00,86.0,,,,,,,,,,,,,,
2019,08,27,03,18,00,87.6,,,,,,,,,,,,,,
2019,08,27,03,19,00,83.5,,,,,,,,,,,,,,
2019,08,27,03,20,00,85.8,,,,,,,,,,,,,,
2019,08,27,03,21,00,86.6,,,,,,,,,,,,,,
2019,08,27,03,22,00,82.4,,,,,,,,,,,,,,
2019,08,27,03,23,00,81.3,,,,,,,,,,,,,,
2019,08,27,03,24,00,85.1,,,,,,,,,,,,,,
2019,08,27,03,25,00,87.7,,,,,,,,,,,,,,
2019,08,27,03,26,00,89.1,,,,,,,,,,,,,,
2019,08,27,03,27,00,81.8,,,,,,,,,,,,,,
2019,08,27,03,28,00,87.0,,,,,,,,,,,,,,
2019,08,27,03,29,00,91.2,,,,,,,,,,,,,,
2019,08,27,03,30,00,89.8,,,,,,,,,,,,,,
2019,08,27,03,31,00,90.6,,,,,,,,,,,,,,
2019,08,27,03,32,00,99.3,,,,,,,,,,,,,,
2019,08,27,03,33,00,93.1,,,,,,,,,,,,,,
2019,08,27,03,34,00,90.1,,,,,,,,,,,,,,
2019,08,27,03,35,00,84.6,,,,,,,,,,,,,,
2019,08,27,03,36,00,80.5,,,,,,,,,,,,,,
2019,08,27,03,37,00,80.4,,,,,,,,,,,,,,
2019,08,27,03,38,00,80.1,,,,,,,,,,,,,,
2019,08,27,03,39,00,79.7,,,,,,,,,,,,,,
2019,08,27,03,40,00,79.8,,,,,,,,,,,,,,
2019,08,27,03,41,00,79.6,,,,,,,,,,,,,,
2019,08,27,03,42,00,79.8,,,,,,,,,,,,,,
2019,08,27,03,43,00,80.3,,,,,,,,,,,,,,
2019,08,27,03,44,00,80.1,,,,,,,,,,,,,,
2019,08,27,03,45,00,78.7,,,,,,,,,,,,,,
2019,08,27,03,46,00,78.0,,,,,,,,,,,,,,
2019,08,27,03,47,00,78.7,,,,,,,,,,,,,,
2019,08,27,03,48,00,78.2,,,,,,,,,,,,,,
2019,08,27,03,49,00,79.7,,,,,,,,,,,,,,
2019,08,27,03,50,00,75.2,,,,,,,,,,,,,,
2019,08,27,03,51,00,76.8,,,,,,,,,,,,,,
2019,08,27,03,52,00,75.9,,,,,,,,,,,,,,
2019,08,27,03,53,00,75.8,,,,,,,,,,,,,,
2019,08,27,03,54,00,76.6,,,,,,,,,,,,,,
2019,08,27,03,55,00,76.3,,,,,,,,,,,,,,
2019,08,27,03,56,00,76.3,,,,,,,,,,,,,,
2019,08,27,03,57,00,78.6,,,,,,,,,,,,,,
2019,08,27,03,58,00,78.1,,,,,,,,,,,,,,
2019,08,27,03,59,00,78.3,,,,,,,,,,,,,,
2019,08,27,04,00,00,77.5,,,,,,,,,,,,,,
2019,08,27,04,01,00,77.6,,,,,,,,,,,,,,
2019,08,27,04,02,00,79.3,,,,,,,,,,,,,,
2019,08,27,04,03,00,80.1,,,,,,,,,,,,,,
2019,08,27,04,04,00,80.1,,,,,,,,,,,,,,
2019,08,27,04,05,00,79.9,,,,,,,,,,,,,,
2019,08,27,04,06,00,78.6,,,,,,,,,,,,,,
2019,08,27,04,07,00,78.1,,,,,,,,,,,,,,
2019,08,27,04,08,00,78.5,,,,,,,,,,,,,,
2019,08,27,04,09,00,79.2,,,,,,,,,,,,,,
2019,08,27,04,10,00,79.8,,,,,,,,,,,,,,
2019,08,27,04,11,00,83.0,,,,,,,,,,,,,,
2019,08,27,04,12,00,85.6,,,,,,,,,,,,,,
2019,08,27,04,13,00,80.1,,,,,,,,,,,,,,
2019,08,27,04,14,00,81.0,,,,,,,,,,,,,,
2019,08,27,04,15,00,80.8,,,,,,,,,,,,,,
2019,08,27,04,16,00,80.8,,,,,,,,,,,,,,
2019,08,27,04,17,00,81.0,,,,,,,,,,,,,,
2019,08,27,04,18,00,84.4,,,,,,,,,,,,,,
2019,08,27,04,19,00,86.1,,,,,,,,,,,,,,
2019,08,27,04,20,00,84.1,,,,,,,,,,,,,,
2019,08,27,04,21,00,81.2,,,,,,,,,,,,,,
2019,08,27,04,22,00,84.9,,,,,,,,,,,,,,
2019,08,27,04,23,00,85.3,,,,,,,,,,,,,,
2019,08,27,04,24,00,81.6,,,,,,,,,,,,,,
2019,08,27,04,25,00,85.2,,,,,,,,,,,,,,
2019,08,27,04,26,00,80.6,,,,,,,,,,,,,,
2019,08,27,04,27,00,80.4,,,,,,,,,,,,,,
2019,08,27,04,28,00,79.3,,,,,,,,,,,,,,
2019,08,27,04,29,00,78.9,,,,,,,,,,,,,,
2019,08,27,04,30,00,78.6,,,,,,,,,,,,,,
2019,08,27,04,31,00,77.4,,,,,,,,,,,,,,
2019,08,27,04,32,00,77.6,,,,,,,,,,,,,,
2019,08,27,04,33,00,79.7,,,,,,,,,,,,,,
2019,08,27,04,34,00,79.8,,,,,,,,,,,,,,
2019,08,27,04,35,00,79.8,,,,,,,,,,,,,,
2019,08,27,04,36,00,80.2,,,,,,,,,,,,,,
2019,08,27,04,37,00,81.0,,,,,,,,,,,,,,
2019,08,27,04,38,00,81.8,,,,,,,,,,,,,,
2019,08,27,04,39,00,81.4,,,,,,,,,,,,,,
2019,08,27,04,40,00,80.9,,,,,,,,,,,,,,
2019,08,27,04,41,00,80.6,,,,,,,,,,,,,,
2019,08,27,04,42,00,83.5,,,,,,,,,,,,,,
2019,08,27,04,43,00,87.0,,,,,,,,,,,,,,
2019,08,27,04,44,00,87.0,,,,,,,,,,,,,,
2019,08,27,04,45,00,93.2,,,,,,,,,,,,,,
2019,08,27,04,46,00,94.8,,,,,,,,,,,,,,
2019,08,27,04,47,00,91.1,,,,,,,,,,,,,,
2019,08,27,04,48,00,98.7,,,,,,,,,,,,,,
2019,08,27,04,49,00,102.6,,,,,,,,,,,,,,
2019,08,27,04,50,00,,,,,,,,,,,,,,,
2019,08,27,04,51,00,,,,,,,,,,,,,,,
2019,08,27,04,52,00,103.9,,,,,,,,,,,,,,
2019,08,27,04,53,00,103.5,,,,,,,,,,,,,,
2019,08,27,04,54,00,101.3,,,,,,,,,,,,,,
2019,08,27,04,55,00,96.1,,,,,,,,,,,,,,
2019,08,27,04,56,00,87.1,,,,,,,,,,,,,,
2019,08,27,04,57,00,87.7,,,,,,,,,,,,,,
2019,08,27,04,58,00,98.7,,,,,,,,,,,,,,
2019,08,27,04,59,00,106.9,,,,,,,,,,,,,,
2019,08,27,05,00,00,117.6,,,,,,,,,,,,,,
2019,08,27,05,01,00,109.5,,,,,,,,,,,,,,
2019,08,27,05,02,00,109.7,,,,,,,,,,,,,,
2019,08,27,05,03,00,105.7,,,,,,,,,,,,,,
2019,08,27,05,04,00,99.6,,,,,,,,,,,,,,
2019,08,27,05,05,00,103.3,,,,,,,,,,,,,,
2019,08,27,05,06,00,107.6,,,,,,,,,,,,,,
2019,08,27,05,07,00,98.2,,,,,,,,,,,,,,
2019,08,27,05,08,00,87.4,,,,,,,,,,,,,,
2019,08,27,05,09,00,85.8,,,,,,,,,,,,,,
2019,08,27,05,10,00,94.8,,,,,,,,,,,,,,
2019,08,27,05,11,00,105.5,,,,,,,,,,,,,,
2019,08,27,05,12,00,115.3,,,,,,,,,,,,,,
2019,08,27,05,13,00,126.6,,,,,,,,,,,,,,
2019,08,27,05,14,00,124.5,,,,,,,,,,,,,,
2019,08,27,05,15,00,113.6,,,,,,,,,,,,,,
2019,08,27,05,16,00,111.8,,,,,,,,,,,,,,
2019,08,27,05,17,00,103.6,,,,,,,,,,,,,,
2019,08,27,05,18,00,106.2,,,,,,,,,,,,,,
2019,08,27,05,19,00,103.9,,,,,,,,,,,,,,
2019,08,27,05,20,00,106.0,,,,,,,,,,,,,,
2019,08,27,05,21,00,109.1,,,,,,,,,,,,,,
2019,08,27,05,22,00,124.0,,,,,,,,,,,,,,
2019,08,27,05,23,00,137.2,,,,,,,,,,,,,,
2019,08,27,05,24,00,121.9,,,,,,,,,,,,,,
2019,08,27,05,25,00,112.4,,,,,,,,,,,,,,
2019,08,27,05,26,00,112.5,,,,,,,,,,,,,,
2019,08,27,05,27,00,113.1,,,,,,,,,,,,,,
2019,08,27,05,28,00,109.6,,,,,,,,,,,,,,
2019,08,27,05,29,00,116.3,,,,,,,,,,,,,,
2019,08,27,05,30,00,122.2,,,,,,,,,,,,,,
2019,08,27,05,31,00,115.4,,,,,,,,,,,,,,
2019,08,27,05,32,00,107.6,,,,,,,,,,,,,,
2019,08,27,05,33,00,106.0,,,,,,,,,,,,,,
2019,08,27,05,34,00,96.0,,,,,,,,,,,,,,
2019,08,27,05,35,00,95.9,,,,,,,,,,,,,,
2019,08,27,05,36,00,99.6,,,,,,,,,,,,,,
2019,08,27,05,37,00,101.1,,,,,,,,,,,,,,
2019,08,27,05,38,00,97.6,,,,,,,,,,,,,,
2019,08,27,05,39,00,103.6,,,,,,,,,,,,,,
2019,08,27,05,40,00,107.3,,,,,,,,,,,,,,
2019,08,27,05,41,00,118.2,,,,,,,,,,,,,,
2019,08,27,05,42,00,114.9,,,,,,,,,,,,,,
2019,08,27,05,43,00,110.1,,,,,,,,,,,,,,
2019,08,27,05,44,00,112.0,,,,,,,,,,,,,,
2019,08,27,05,45,00,118.6,,,,,,,,,,,,,,
2019,08,27,05,46,00,119.3,,,,,,,,,,,,,,
2019,08,27,05,47,00,118.6,,,,,,,,,,,,,,
2019,08,27,05,48,00,124.0,,,,,,,,,,,,,,
2019,08,27,05,49,00,146.2,,,,,,,,,,,,,,
2019,08,27,05,50,00,163.6,,,,,,,,,,,,,,
2019,08,27,05,51,00,167.0,,,,,,,,,,,,,,
2019,08,27,05,52,00,145.3,,,,,,,,,,,,,,
2019,08,27,05,53,00,118.8,,,,,,,,,,,,,,
2019,08,27,05,54,00,122.5,,,,,,,,,,,,,,
2019,08,27,05,55,00,122.9,,,,,,,,,,,,,,
2019,08,27,05,56,00,120.7,,,,,,,,,,,,,,
2019,08,27,05,57,00,100.6,,,,,,,,,,,,,,
2019,08,27,05,58,00,92.5,,,,,,,,,,,,,,
2019,08,27,05,59,00,105.2,,,,,,,,,,,,,,
2019,08,27,06,00,00,118.8,,,,,,,,,,,,,,
2019,08,27,06,01,00,123.7,,,,,,,,,,,,,,
2019,08,27,06,02,00,126.1,,,,,,,,,,,,,,
2019,08,27,06,03,00,115.7,,,,,,,,,,,,,,
2019,08,27,06,04,00,118.2,,,,,,,,,,,,,,
2019,08,27,06,05,00,123.7,,,,,,,,,,,,,,
2019,08,27,06,06,00,125.1,,,,,,,,,,,,,,
2019,08,27,06,07,00,122.9,,,,,,,,,,,,,,
2019,08,27,06,08,00,116.3,,,,,,,,,,,,,,
2019,08,27,06,09,00,117.0,,,,,,,,,,,,,,
2019,08,27,06,10,00,117.0,,,,,,,,,,,,,,
2019,08,27,06,11,00,115.7,,,,,,,,,,,,,,
2019,08,27,06,12,00,113.7,,,,,,,,,,,,,,
2019,08,27,06,13,00,112.3,,,,,,,,,,,,,,
2019,08,27,06,14,00,109.4,,,,,,,,,,,,,,
2019,08,27,06,15,00,107.3,,,,,,,,,,,,,,
2019,08,27,06,16,00,116.7,,,,,,,,,,,,,,
2019,08,27,06,17,00,125.9,,,,,,,,,,,,,,
2019,08,27,06,18,00,128.5,,,,,,,,,,,,,,
2019,08,27,06,19,00,141.1,,,,,,,,,,,,,,
2019,08,27,06,20,00,141.3,,,,,,,,,,,,,,
2019,08,27,06,21,00,124.9,,,,,,,,,,,,,,
2019,08,27,06,22,00,127.6,,,,,,,,,,,,,,
2019,08,27,06,23,00,124.3,,,,,,,,,,,,,,
2019,08,27,06,24,00,147.2,,,,,,,,,,,,,,
2019,08,27,06,25,00,155.1,,,,,,,,,,,,,,
2019,08,27,06,26,00,149.0,,,,,,,,,,,,,,
2019,08,27,06,27,00,136.7,,,,,,,,,,,,,,
2019,08,27,06,28,00,140.9,,,,,,,,,,,,,,
2019,08,27,06,29,00,158.1,,,,,,,,,,,,,,
2019,08,27,06,30,00,161.2,,,,,,,,,,,,,,
2019,08,27,06,31,00,134.3,,,,,,,,,,,,,,
2019,08,27,06,32,00,139.5,,,,,,,,,,,,,,
2019,08,27,06,33,00,135.3,,,,,,,,,,,,,,
2019,08,27,06,34,00,137.5,,,,,,,,,,,,,,
2019,08,27,06,35,00,142.2,,,,,,,,,,,,,,
2019,08,27,06,36,00,148.0,,,,,,,,,,,,,,
2019,08,27,06,37,00,157.2,,,,,,,,,,,,,,
2019,08,27,06,38,00,145.7,,,,,,,,,,,,,,
2019,08,27,06,39,00,149.1,,,,,,,,,,,,,,
2019,08,27,06,40,00,152.3,,,,,,,,,,,,,,
2019,08,27,06,41,00,139.8,,,,,,,,,,,,,,
2019,08,27,06,42,00,153.4,,,,,,,,,,,,,,
2019,08,27,06,43,00,161.8,,,,,,,,,,,,,,
2019,08,27,06,44,00,159.2,,,,,,,,,,,,,,
2019,08,27,06,45,00,,,,,,,,,,,,,,,
2019,08,27,06,46,00,,,,,,,,,,,,,,,
2019,08,27,06,47,00,142.9,,,,,,,,,,,,,,
2019,08,27,06,48,00,156.9,,,,,,,,,,,,,,
2019,08,27,06,49,00,149.7,,,,,,,,,,,,,,
2019,08,27,06,50,00,151.1,,,,,,,,,,,,,,
2019,08,27,06,51,00,154.9,,,,,,,,,,,,,,
2019,08,27,06,52,00,158.9,,,,,,,,,,,,,,
2019,08,27,06,53,00,158.7,,,,,,,,,,,,,,
2019,08,27,06,54,00,163.1,,,,,,,,,,,,,,
2019,08,27,06,55,00,,,,,,,,,,,,,,,
2019,08,27,06,56,00,,,,,,,,,,,,,,,
2019,08,27,06,57,00,190.1,,,,,,,,,,,,,,
2019,08,27,06,58,00,192.4,,,,,,,,,,,,,,
2019,08,27,06,59,00,177.1,,,,,,,,,,,,,,
2019,08,27,07,00,00,184.3,,,,,,,,,,,,,,
2019,08,27,07,01,00,186.0,,,,,,,,,,,,,,
2019,08,27,07,02,00,179.4,,,,,,,,,,,,,,
2019,08,27,07,03,00,169.2,,,,,,,,,,,,,,
2019,08,27,07,04,00,178.6,,,,,,,,,,,,,,
2019,08,27,07,05,00,191.5,,,,,,,,,,,,,,
2019,08,27,07,06,00,176.4,,,,,,,,,,,,,,
2019,08,27,07,07,00,174.1,,,,,,,,,,,,,,
2019,08,27,07,08,00,189.0,,,,,,,,,,,,,,
2019,08,27,07,09,00,184.6,,,,,,,,,,,,,,
2019,08,27,07,10,00,166.7,,,,,,,,,,,,,,
2019,08,27,07,11,00,163.6,,,,,,,,,,,,,,
2019,08,27,07,12,00,158.5,,,,,,,,,,,,,,
2019,08,27,07,13,00,163.0,,,,,,,,,,,,,,
2019,08,27,07,14,00,174.8,,,,,,,,,,,,,,
2019,08,27,07,15,00,168.6,,,,,,,,,,,,,,
2019,08,27,07,16,00,177.4,,,,,,,,,,,,,,
2019,08,27,07,17,00,187.7,,,,,,,,,,,,,,
2019,08,27,07,18,00,174.5,,,,,,,,,,,,,,
2019,08,27,07,19,00,179.0,,,,,,,,,,,,,,
2019,08,27,07,20,00,186.8,,,,,,,,,,,,,,
2019,08,27,07,21,00,178.0,,,,,,,,,,,,,,
2019,08,27,07,22,00,180.9,,,,,,,,,,,,,,
2019,08,27,07,23,00,166.0,,,,,,,,,,,,,,
2019,08,27,07,24,00,160.3,,,,,,,,,,,,,,
2019,08,27,07,25,00,170.7,,,,,,,,,,,,,,
2019,08,27,07,26,00,189.2,,,,,,,,,,,,,,
2019,08,27,07,27,00,190.2,,,,,,,,,,,,,,
2019,08,27,07,28,00,188.5,,,,,,,,,,,,,,
2019,08,27,07,29,00,180.3,,,,,,,,,,,,,,
2019,08,27,07,30,00,169.9,,,,,,,,,,,,,,
2019,08,27,07,31,00,163.5,,,,,,,,,,,,,,
2019,08,27,07,32,00,158.1,,,,,,,,,,,,,,
2019,08,27,07,33,00,171.4,,,,,,,,,,,,,,
2019,08,27,07,34,00,165.4,,,,,,,,,,,,,,
2019,08,27,07,35,00,166.2,,,,,,,,,,,,,,
2019,08,27,07,36,00,164.8,,,,,,,,,,,,,,
2019,08,27,07,37,00,151.2,,,,,,,,,,,,,,
2019,08,27,07,38,00,158.2,,,,,,,,,,,,,,
2019,08,27,07,39,00,164.0,,,,,,,,,,,,,,
2019,08,27,07,40,00,179.5,,,,,,,,,,,,,,
2019,08,27,07,41,00,183.6,,,,,,,,,,,,,,
2019,08,27,07,42,00,185.6,,,,,,,,,,,,,,
2019,08,27,07,43,00,171.3,,,,,,,,,,,,,,
2019,08,27,07,44,00,189.8,,,,,,,,,,,,,,
2019,08,27,07,45,00,187.4,,,,,,,,,,,,,,
2019,08,27,07,46,00,168.6,,,,,,,,,,,,,,
2019,08,27,07,47,00,161.7,,,,,,,,,,,,,,
2019,08,27,07,48,00,151.4,,,,,,,,,,,,,,
2019,08,27,07,49,00,160.7,,,,,,,,,,,,,,
2019,08,27,07,50,00,175.4,,,,,,,,,,,,,,
2019,08,27,07,51,00,166.2,,,,,,,,,,,,,,
2019,08,27,07,52,00,160.8,,,,,,,,,,,,,,
2019,08,27,07,53,00,159.9,,,,,,,,,,,,,,
2019,08,27,07,54,00,165.9,,,,,,,,,,,,,,
2019,08,27,07,55,00,168.3,,,,,,,,,,,,,,
2019,08,27,07,56,00,170.3,,,,,,,,,,,,,,
2019,08,27,07,57,00,160.9,,,,,,,,,,,,,,
2019,08,27,07,58,00,163.9,,,,,,,,,,,,,,
2019,08,27,07,59,00,166.3,,,,,,,,,,,,,,
2019,08,27,08,00,00,157.6,,,,,,,,,,,,,,
2019,08,27,08,01,00,144.3,,,,,,,,,,,,,,
2019,08,27,08,02,00,155.3,,,,,,,,,,,,,,
2019,08,27,08,03,00,168.6,,,,,,,,,,,,,,
2019,08,27,08,04,00,176.6,,,,,,,,,,,,,,
2019,08,27,08,05,00,177.0,,,,,,,,,,,,,,
2019,08,27,08,06,00,198.3,,,,,,,,,,,,,,
2019,08,27,08,07,00,178.6,,,,,,,,,,,,,,
2019,08,27,08,08,00,180.6,,,,,,,,,,,,,,
2019,08,27,08,09,00,180.5,,,,,,,,,,,,,,
2019,08,27,08,10,00,172.3,,,,,,,,,,,,,,
2019,08,27,08,11,00,159.6,,,,,,,,,,,,,,
2019,08,27,08,12,00,162.7,,,,,,,,,,,,,,
2019,08,27,08,13,00,154.7,,,,,,,,,,,,,,
2019,08,27,08,14,00,164.1,,,,,,,,,,,,,,
2019,08,27,08,15,00,163.6,,,,,,,,,,,,,,
2019,08,27,08,16,00,147.0,,,,,,,,,,,,,,
2019,08,27,08,17,00,151.7,,,,,,,,,,,,,,
2019,08,27,08,18,00,155.7,,,,,,,,,,,,,,
2019,08,27,08,19,00,166.6,,,,,,,,,,,,,,
2019,08,27,08,20,00,161.5,,,,,,,,,,,,,,
2019,08,27,08,21,00,181.7,,,,,,,,,,,,,,
2019,08,27,08,22,00,182.0,,,,,,,,,,,,,,
2019,08,27,08,23,00,157.8,,,,,,,,,,,,,,
2019,08,27,08,24,00,160.5,,,,,,,,,,,,,,
2019,08,27,08,25,00,155.5,,,,,,,,,,,,,,
2019,08,27,08,26,00,150.1,,,,,,,,,,,,,,
2019,08,27,08,27,00,148.0,,,,,,,,,,,,,,
2019,08,27,08,28,00,163.8,,,,,,,,,,,,,,
2019,08,27,08,29,00,165.6,,,,,,,,,,,,,,
2019,08,27,08,30,00,163.8,,,,,,,,,,,,,,
2019,08,27,08,31,00,166.0,,,,,,,,,,,,,,
2019,08,27,08,32,00,176.8,,,,,,,,,,,,,,
2019,08,27,08,33,00,151.5,,,,,,,,,,,,,,
2019,08,27,08,34,00,144.5,,,,,,,,,,,,,,
2019,08,27,08,35,00,142.8,,,,,,,,,,,,,,
2019,08,27,08,36,00,160.1,,,,,,,,,,,,,,
2019,08,27,08,37,00,149.4,,,,,,,,,,,,,,
2019,08,27,08,38,00,144.5,,,,,,,,,,,,,,
2019,08,27,08,39,00,161.4,,,,,,,,,,,,,,
2019,08,27,08,40,00,158.7,,,,,,,,,,,,,,
2019,08,27,08,41,00,138.4,,,,,,,,,,,,,,
2019,08,27,08,42,00,135.6,,,,,,,,,,,,,,
2019,08,27,08,43,00,142.0,,,,,,,,,,,,,,
2019,08,27,08,44,00,149.2,,,,,,,,,,,,,,
2019,08,27,08,45,00,133.2,,,,,,,,,,,,,,
2019,08,27,08,46,00,144.4,,,,,,,,,,,,,,
2019,08,27,08,47,00,158.3,,,,,,,,,,,,,,
2019,08,27,08,48,00,144.8,,,,,,,,,,,,,,
2019,08,27,08,49,00,129.4,,,,,,,,,,,,,,
2019,08,27,08,50,00,133.7,,,,,,,,,,,,,,
2019,08,27,08,51,00,156.1,,,,,,,,,,,,,,
2019,08,27,08,52,00,150.7,,,,,,,,,,,,,,
2019,08,27,08,53,00,141.5,,,,,,,,,,,,,,
2019,08,27,08,54,00,157.5,,,,,,,,,,,,,,
2019,08,27,08,55,00,151.9,,,,,,,,,,,,,,
2019,08,27,08,56,00,182.1,,,,,,,,,,,,,,
2019,08,27,08,57,00,152.5,,,,,,,,,,,,,,
2019,08,27,08,58,00,153.8,,,,,,,,,,,,,,
2019,08,27,08,59,00,150.5,,,,,,,,,,,,,,
2019,08,27,09,00,00,146.9,,,,,,,,,,,,,,
2019,08,27,09,01,00,159.9,,,,,,,,,,,,,,
2019,08,27,09,02,00,141.8,,,,,,,,,,,,,,
2019,08,27,09,03,00,133.1,,,,,,,,,,,,,,
2019,08,27,09,04,00,123.8,,,,,,,,,,,,,,
2019,08,27,09,05,00,121.2,,,,,,,,,,,,,,
2019,08,27,09,06,00,129.3,,,,,,,,,,,,,,
2019,08,27,09,07,00,145.0,,,,,,,,,,,,,,
2019,08,27,09,08,00,156.5,,,,,,,,,,,,,,
2019,08,27,09,09,00,148.6,,,,,,,,,,,,,,
2019,08,27,09,10,00,132.3,,,,,,,,,,,,,,
2019,08,27,09,11,00,121.6,,,,,,,,,,,,,,
2019,08,27,09,12,00,125.7,,,,,,,,,,,,,,
2019,08,27,09,13,00,122.4,,,,,,,,,,,,,,
2019,08,27,09,14,00,132.7,,,,,,,,,,,,,,
2019,08,27,09,15,00,146.9,,,,,,,,,,,,,,
2019,08,27,09,16,00,153.4,,,,,,,,,,,,,,
2019,08,27,09,17,00,135.8,,,,,,,,,,,,,,
2019,08,27,09,18,00,140.0,,,,,,,,,,,,,,
2019,08,27,09,19,00,139.1,,,,,,,,,,,,,,
2019,08,27,09,20,00,155.1,,,,,,,,,,,,,,
2019,08,27,09,21,00,140.7,,,,,,,,,,,,,,
2019,08,27,09,22,00,124.1,,,,,,,,,,,,,,
2019,08,27,09,23,00,131.8,,,,,,,,,,,,,,
2019,08,27,09,24,00,133.4,,,,,,,,,,,,,,
2019,08,27,09,25,00,122.8,,,,,,,,,,,,,,
2019,08,27,09,26,00,120.8,,,,,,,,,,,,,,
2019,08,27,09,27,00,122.7,,,,,,,,,,,,,,
2019,08,27,09,28,00,120.9,,,,,,,,,,,,,,
2019,08,27,09,29,00,122.0,,,,,,,,,,,,,,
2019,08,27,09,30,00,129.8,,,,,,,,,,,,,,
2019,08,27,09,31,00,123.0,,,,,,,,,,,,,,
2019,08,27,09,32,00,132.7,,,,,,,,,,,,,,
2019,08,27,09,33,00,122.6,,,,,,,,,,,,,,
2019,08,27,09,34,00,129.2,,,,,,,,,,,,,,
2019,08,27,09,35,00,151.3,,,,,,,,,,,,,,
2019,08,27,09,36,00,147.6,,,,,,,,,,,,,,
2019,08,27,09,37,00,126.8,,,,,,,,,,,,,,
2019,08,27,09,38,00,127.0,,,,,,,,,,,,,,
2019,08,27,09,39,00,126.9,,,,,,,,,,,,,,
2019,08,27,09,40,00,118.6,,,,,,,,,,,,,,
2019,08,27,09,41,00,116.7,,,,,,,,,,,,,,
2019,08,27,09,42,00,119.7,,,,,,,,,,,,,,
2019,08,27,09,43,00,133.3,,,,,,,,,,,,,,
2019,08,27,09,44,00,126.2,,,,,,,,,,,,,,
2019,08,27,09,45,00,133.1,,,,,,,,,,,,,,
2019,08,27,09,46,00,125.4,,,,,,,,,,,,,,
2019,08,27,09,47,00,122.6,,,,,,,,,,,,,,
2019,08,27,09,48,00,126.5,,,,,,,,,,,,,,
2019,08,27,09,49,00,132.2,,,,,,,,,,,,,,